STARLINK-1468

decayed
NORAD ID: 45734 Int'l Des: 2020-038 Owner: SPXS Country: US Constellation: starlink
LEOCIRCULAR
Group

About STARLINK-1468

Description loading...

Altitude History

Altitude vs Time

uPlot chart will show altitude changes over time

Two-Line Element Set

1 45734U 20038E 24363.68374941 .09789651 12205-4 58970-3 0 9997
2 45734 53.0396 268.7615 0011586 194.9677 253.2393 16.41093828253368
Epoch: Dec 28, 2024 • Age: 6255 hours

Current Status

Position data unavailable
Launch Date Jun 13, 2020
Age 5.2 years
Decay Date Dec 28, 2024
Type internet

Technical Details

Classification Payload
Mass 260.00 kg
Dry Mass 248.00 kg
Total Mass 260.00 kg
Length 0.20 m
Diameter 2.80 m
Span 9.00 m
Shape Box + pan
Manufacturer SPXS
Bus Type Starlink
Phase Status Reentered
Owner/State SPXS/US

Large Constellations

Loading constellations...